EJU18MU LFPO-EGHI

Flight info

Callsign EJU18MU
Flight time 0h 49m
Altitude 34000
Route OPALE DCT KESAX DCT KUNAV/N0417F260 N20 ELDAX
Aircraft A320/M-SDE3FGHIRWY/LB1

Departure

Time 2026-05-08 20:59
Airport Paris-Orly Airport (LFPO)

Arrival

Time 2026-05-08 21:48
Airport Southampton Airport (EGHI)
Time Latitude Longitude Altitude Speed Heading
2026-05-08 20:23 48.72991 2.35706 284 ft 0 kts 189°
2026-05-08 20:38 48.73001 2.35708 304 ft 4 kts 192°
2026-05-08 20:38 48.73025 2.35722 303 ft 4 kts 218°
2026-05-08 20:38 48.73038 2.35749 302 ft 3 kts 281°
2026-05-08 20:39 48.73037 2.35755 303 ft 0 kts 287°
2026-05-08 20:45 48.73039 2.35744 302 ft 3 kts 287°
2026-05-08 20:45 48.73043 2.35727 302 ft 2 kts 287°
2026-05-08 20:45 48.73047 2.35696 300 ft 4 kts 283°
2026-05-08 20:45 48.73064 2.35641 300 ft 6 kts 301°
2026-05-08 20:46 48.73091 2.35594 304 ft 7 kts 304°
2026-05-08 20:46 48.73088 2.35527 301 ft 6 kts 246°
2026-05-08 20:46 48.73066 2.35474 300 ft 6 kts 236°
2026-05-08 20:46 48.73035 2.35415 301 ft 8 kts 224°
2026-05-08 20:47 48.72987 2.35377 301 ft 8 kts 202°
2026-05-08 20:47 48.72939 2.35353 301 ft 7 kts 198°
2026-05-08 20:47 48.72869 2.35319 300 ft 14 kts 200°
2026-05-08 20:47 48.72772 2.35268 303 ft 14 kts 198°
2026-05-08 20:48 48.72683 2.35264 300 ft 12 kts 164°
2026-05-08 20:48 48.72603 2.35298 299 ft 11 kts 164°
2026-05-08 20:48 48.72532 2.35328 303 ft 10 kts 165°
2026-05-08 20:48 48.72459 2.35358 300 ft 13 kts 165°
2026-05-08 20:49 48.72440 2.35366 302 ft 4 kts 165°
2026-05-08 20:49 48.72401 2.35390 303 ft 8 kts 153°
2026-05-08 20:49 48.72340 2.35458 300 ft 14 kts 127°
2026-05-08 20:49 48.72301 2.35549 302 ft 12 kts 133°
2026-05-08 20:50 48.72222 2.35605 301 ft 11 kts 166°
2026-05-08 20:50 48.72131 2.35640 302 ft 12 kts 163°
2026-05-08 20:50 48.72096 2.35660 303 ft 0 kts 154°
2026-05-08 20:53 48.72062 2.35692 301 ft 10 kts 140°
2026-05-08 20:53 48.72028 2.35757 302 ft 3 kts 122°
2026-05-08 20:53 48.72026 2.35760 299 ft 0 kts 121°
2026-05-08 20:57 48.72026 2.35761 299 ft 2 kts 121°
2026-05-08 20:57 48.71997 2.35837 304 ft 12 kts 120°
2026-05-08 20:58 48.71973 2.36000 304 ft 26 kts 83°
2026-05-08 20:58 48.72061 2.36491 303 ft 83 kts 74°
2026-05-08 20:58 48.72278 2.37653 304 ft 144 kts 73°
2026-05-08 20:58 48.72569 2.39176 874 ft 148 kts 73°
2026-05-08 20:59 48.72848 2.40682 1693 ft 148 kts 74°
2026-05-08 20:59 48.73132 2.42235 2255 ft 162 kts 75°
2026-05-08 20:59 48.73447 2.43966 2663 ft 184 kts 75°
2026-05-08 20:59 48.73812 2.45960 3107 ft 209 kts 75°
2026-05-08 21:00 48.74062 2.48247 3603 ft 232 kts 88°
2026-05-08 21:00 48.74137 2.50811 4208 ft 253 kts 88°
2026-05-08 21:00 48.74228 2.53519 5094 ft 261 kts 88°
2026-05-08 21:00 48.74238 2.56308 5965 ft 269 kts 102°
2026-05-08 21:01 48.73418 2.58841 6769 ft 274 kts 136°
2026-05-08 21:01 48.71782 2.60257 7630 ft 276 kts 170°
2026-05-08 21:01 48.69920 2.60067 8519 ft 276 kts 203°
2026-05-08 21:01 48.68400 2.58351 9457 ft 277 kts 232°
2026-05-08 21:02 48.67453 2.55823 10381 ft 279 kts 252°
2026-05-08 21:02 48.67221 2.52842 10893 ft 299 kts 276°
2026-05-08 21:02 48.67981 2.49808 11240 ft 324 kts 305°
2026-05-08 21:02 48.69732 2.47582 11824 ft 339 kts 333°
2026-05-08 21:03 48.71986 2.46391 12597 ft 346 kts 341°
2026-05-08 21:03 48.74302 2.45294 13414 ft 351 kts 341°
2026-05-08 21:03 48.76646 2.44184 14165 ft 355 kts 341°
2026-05-08 21:03 48.79016 2.43054 14883 ft 359 kts 341°
2026-05-08 21:04 48.81370 2.41924 15608 ft 362 kts 340°
2026-05-08 21:04 48.83782 2.40762 16341 ft 365 kts 340°
2026-05-08 21:04 48.86210 2.39589 17068 ft 368 kts 340°
2026-05-08 21:04 48.88660 2.38407 17796 ft 371 kts 340°
2026-05-08 21:05 48.91131 2.37215 18493 ft 374 kts 340°
2026-05-08 21:05 48.93622 2.36009 18918 ft 377 kts 340°
2026-05-08 21:05 48.96129 2.34798 19269 ft 379 kts 340°
2026-05-08 21:05 48.98647 2.33581 19925 ft 381 kts 340°
2026-05-08 21:06 49.01177 2.32354 20536 ft 383 kts 341°
2026-05-08 21:06 49.03692 2.31138 21127 ft 386 kts 341°
2026-05-08 21:06 49.06259 2.29896 21716 ft 388 kts 341°
2026-05-08 21:06 49.08840 2.28644 22310 ft 390 kts 341°
2026-05-08 21:07 49.11433 2.27385 22891 ft 393 kts 341°
2026-05-08 21:07 49.14046 2.26117 23464 ft 395 kts 342°
2026-05-08 21:07 49.16671 2.24840 23960 ft 397 kts 341°
2026-05-08 21:07 49.19311 2.23552 24418 ft 400 kts 341°
2026-05-08 21:08 49.21967 2.22254 24880 ft 402 kts 341°
2026-05-08 21:08 49.24640 2.20950 25300 ft 405 kts 341°
2026-05-08 21:08 49.27302 2.19647 25661 ft 409 kts 341°
2026-05-08 21:08 49.30027 2.18306 26009 ft 412 kts 341°
2026-05-08 21:09 49.32747 2.16968 26095 ft 407 kts 341°
2026-05-08 21:09 49.35429 2.15644 26110 ft 403 kts 341°
2026-05-08 21:09 49.38094 2.14329 26111 ft 402 kts 341°
2026-05-08 21:09 49.40754 2.13016 26111 ft 401 kts 341°
2026-05-08 21:10 49.43412 2.11707 26111 ft 401 kts 341°
2026-05-08 21:10 49.46072 2.10397 26111 ft 401 kts 341°
2026-05-08 21:10 49.48728 2.09086 26112 ft 401 kts 341°
2026-05-08 21:10 49.51351 2.07792 26118 ft 401 kts 341°
2026-05-08 21:11 49.54004 2.06479 26112 ft 400 kts 341°
2026-05-08 21:11 49.56652 2.05165 26109 ft 400 kts 341°
2026-05-08 21:11 49.59295 2.03853 26104 ft 400 kts 341°
2026-05-08 21:11 49.61942 2.02539 26107 ft 400 kts 341°
2026-05-08 21:12 49.64589 2.01222 26099 ft 399 kts 341°
2026-05-08 21:12 49.67233 1.99905 26097 ft 399 kts 341°
2026-05-08 21:12 49.69883 1.98587 26094 ft 399 kts 341°
2026-05-08 21:12 49.72492 1.97283 26096 ft 399 kts 341°
2026-05-08 21:13 49.75135 1.95961 26105 ft 399 kts 341°
2026-05-08 21:13 49.77773 1.94637 26102 ft 399 kts 341°
2026-05-08 21:13 49.80413 1.93310 26100 ft 399 kts 341°
2026-05-08 21:13 49.83056 1.91983 26102 ft 399 kts 341°
2026-05-08 21:14 49.85693 1.90657 26101 ft 399 kts 341°
2026-05-08 21:14 49.88320 1.89280 26105 ft 398 kts 337°
2026-05-08 21:14 49.90783 1.87350 26101 ft 397 kts 327°
2026-05-08 21:14 49.93005 1.84808 26098 ft 396 kts 321°
2026-05-08 21:15 49.95132 1.82167 26097 ft 397 kts 321°
2026-05-08 21:15 49.97289 1.79500 26097 ft 397 kts 321°
2026-05-08 21:15 49.99452 1.76830 26091 ft 398 kts 321°
2026-05-08 21:15 50.01622 1.74156 26096 ft 398 kts 321°
2026-05-08 21:16 50.03796 1.71478 26096 ft 399 kts 321°
2026-05-08 21:16 50.05969 1.68801 26096 ft 399 kts 321°
2026-05-08 21:16 50.07916 1.65755 26092 ft 398 kts 306°
2026-05-08 21:16 50.09459 1.62167 26088 ft 398 kts 303°
2026-05-08 21:17 50.10973 1.58547 26085 ft 399 kts 303°
2026-05-08 21:17 50.12478 1.54921 26092 ft 399 kts 303°
2026-05-08 21:17 50.13963 1.51335 26093 ft 399 kts 303°
2026-05-08 21:17 50.15468 1.47701 26101 ft 399 kts 303°
2026-05-08 21:18 50.16975 1.44060 26093 ft 399 kts 303°
2026-05-08 21:18 50.18479 1.40419 26092 ft 399 kts 303°
2026-05-08 21:18 50.19979 1.36777 26099 ft 399 kts 302°
2026-05-08 21:18 50.21478 1.33138 25943 ft 396 kts 302°
2026-05-08 21:19 50.22964 1.29527 25354 ft 394 kts 302°
2026-05-08 21:19 50.24438 1.25938 24760 ft 391 kts 302°
2026-05-08 21:19 50.25902 1.22370 24182 ft 389 kts 302°
2026-05-08 21:19 50.27360 1.18817 23607 ft 388 kts 302°
2026-05-08 21:20 50.28816 1.15274 22965 ft 386 kts 302°
2026-05-08 21:20 50.30239 1.11797 22372 ft 383 kts 302°
2026-05-08 21:20 50.31669 1.08295 21796 ft 381 kts 302°
2026-05-08 21:20 50.33089 1.04808 21250 ft 379 kts 302°
2026-05-08 21:21 50.34503 1.01337 20712 ft 377 kts 301°
2026-05-08 21:21 50.35908 0.97890 20190 ft 375 kts 301°
2026-05-08 21:21 50.37307 0.94454 19684 ft 373 kts 301°
2026-05-08 21:21 50.38693 0.91037 19200 ft 371 kts 301°
2026-05-08 21:22 50.40066 0.87643 18752 ft 368 kts 301°
2026-05-08 21:22 50.41429 0.84268 18292 ft 366 kts 301°
2026-05-08 21:22 50.42789 0.80898 18089 ft 366 kts 300°
2026-05-08 21:22 50.44129 0.77569 18118 ft 367 kts 300°
2026-05-08 21:23 50.45492 0.74183 18123 ft 367 kts 300°
2026-05-08 21:23 50.46856 0.70792 18115 ft 367 kts 300°
2026-05-08 21:23 50.48076 0.67285 18112 ft 365 kts 292°
2026-05-08 21:23 50.48943 0.63554 18109 ft 363 kts 283°
2026-05-08 21:24 50.49443 0.59681 18113 ft 362 kts 276°
2026-05-08 21:24 50.49806 0.55768 18114 ft 362 kts 276°
2026-05-08 21:24 50.50171 0.51860 18116 ft 362 kts 276°
2026-05-08 21:24 50.50538 0.47951 18114 ft 362 kts 276°
2026-05-08 21:25 50.50905 0.44047 18122 ft 360 kts 277°
2026-05-08 21:25 50.51269 0.40160 18116 ft 359 kts 277°
2026-05-08 21:25 50.51629 0.36330 18111 ft 359 kts 276°
2026-05-08 21:25 50.51990 0.32474 17701 ft 355 kts 276°
2026-05-08 21:26 50.52343 0.28649 17189 ft 352 kts 276°
2026-05-08 21:26 50.52692 0.24865 16741 ft 348 kts 276°
2026-05-08 21:26 50.53037 0.21114 16291 ft 345 kts 276°
2026-05-08 21:26 50.53503 0.17432 15805 ft 344 kts 286°
2026-05-08 21:27 50.54240 0.13867 15342 ft 342 kts 286°
2026-05-08 21:27 50.54976 0.10334 14927 ft 338 kts 287°
2026-05-08 21:27 50.55459 0.08011 14613 ft 338 kts 287°
2026-05-08 21:27 50.56419 0.03375 14040 ft 335 kts 287°
2026-05-08 21:28 50.57136 -0.00091 13578 ft 332 kts 287°
2026-05-08 21:28 50.57847 -0.03539 13089 ft 331 kts 287°
2026-05-08 21:28 50.58555 -0.06966 12654 ft 327 kts 286°
2026-05-08 21:28 50.59252 -0.10351 12182 ft 325 kts 287°
2026-05-08 21:29 50.59948 -0.13731 11666 ft 324 kts 287°
2026-05-08 21:29 50.60641 -0.17102 11195 ft 323 kts 286°
2026-05-08 21:29 50.61098 -0.19329 10874 ft 322 kts 285°
2026-05-08 21:29 50.61784 -0.22671 10417 ft 320 kts 285°
2026-05-08 21:30 50.62684 -0.27064 9973 ft 313 kts 285°
2026-05-08 21:30 50.63338 -0.30262 9842 ft 300 kts 286°
2026-05-08 21:30 50.63965 -0.33335 9684 ft 290 kts 285°
2026-05-08 21:30 50.64574 -0.36331 9369 ft 285 kts 286°
2026-05-08 21:31 50.64973 -0.38297 9160 ft 283 kts 286°
2026-05-08 21:31 50.65571 -0.41244 9107 ft 283 kts 286°
2026-05-08 21:31 50.66170 -0.44204 9114 ft 283 kts 286°
2026-05-08 21:31 50.66767 -0.47164 9111 ft 284 kts 286°
2026-05-08 21:32 50.67367 -0.50127 9111 ft 284 kts 286°
2026-05-08 21:32 50.67965 -0.53092 9116 ft 284 kts 286°
2026-05-08 21:32 50.68561 -0.56055 9114 ft 284 kts 286°
2026-05-08 21:32 50.69157 -0.59020 9113 ft 283 kts 286°
2026-05-08 21:33 50.69755 -0.61966 8862 ft 281 kts 288°
2026-05-08 21:33 50.70620 -0.64680 8429 ft 281 kts 298°
2026-05-08 21:33 50.71590 -0.67348 8015 ft 280 kts 298°
2026-05-08 21:33 50.72552 -0.70014 7596 ft 279 kts 298°
2026-05-08 21:34 50.73508 -0.72670 7216 ft 277 kts 298°
2026-05-08 21:34 50.74456 -0.75307 7099 ft 277 kts 298°
2026-05-08 21:34 50.75408 -0.77957 7112 ft 278 kts 298°
2026-05-08 21:34 50.76365 -0.80620 7112 ft 279 kts 298°
2026-05-08 21:35 50.77320 -0.83282 7115 ft 279 kts 298°
2026-05-08 21:35 50.78275 -0.85948 7115 ft 279 kts 298°
2026-05-08 21:35 50.79228 -0.88609 7115 ft 278 kts 298°
2026-05-08 21:35 50.80182 -0.91273 7116 ft 278 kts 298°
2026-05-08 21:36 50.81125 -0.93899 7121 ft 278 kts 298°
2026-05-08 21:36 50.82081 -0.96565 7111 ft 279 kts 298°
2026-05-08 21:36 50.83036 -0.99235 7108 ft 279 kts 298°
2026-05-08 21:36 50.83991 -1.01909 7107 ft 279 kts 298°
2026-05-08 21:37 50.84944 -1.04583 7120 ft 279 kts 298°
2026-05-08 21:37 50.85897 -1.07260 7104 ft 279 kts 298°
2026-05-08 21:37 50.86846 -1.09939 7105 ft 279 kts 298°
2026-05-08 21:37 50.87787 -1.12599 6766 ft 276 kts 298°
2026-05-08 21:38 50.88724 -1.15244 6339 ft 275 kts 298°
2026-05-08 21:38 50.89646 -1.17846 5910 ft 274 kts 298°
2026-05-08 21:38 50.90535 -1.20506 5697 ft 263 kts 289°
2026-05-08 21:38 50.90751 -1.23227 5572 ft 247 kts 259°
2026-05-08 21:39 50.90097 -1.25615 5441 ft 231 kts 227°
2026-05-08 21:39 50.88900 -1.27198 5316 ft 220 kts 213°
2026-05-08 21:39 50.87645 -1.28512 5185 ft 212 kts 211°
2026-05-08 21:39 50.86414 -1.29739 5060 ft 205 kts 206°
2026-05-08 21:40 50.85145 -1.30690 4935 ft 199 kts 201°
2026-05-08 21:40 50.83909 -1.31535 4834 ft 187 kts 201°
2026-05-08 21:40 50.82749 -1.32322 4690 ft 176 kts 201°
2026-05-08 21:41 50.80619 -1.33785 4422 ft 161 kts 201°
2026-05-08 21:41 50.79613 -1.34485 4295 ft 155 kts 201°
2026-05-08 21:41 50.78643 -1.35164 4162 ft 150 kts 201°
2026-05-08 21:41 50.77709 -1.35825 4019 ft 145 kts 201°
2026-05-08 21:42 50.76789 -1.36475 3828 ft 144 kts 201°
2026-05-08 21:42 50.76034 -1.37509 3596 ft 151 kts 244°
2026-05-08 21:42 50.75964 -1.39141 3426 ft 152 kts 278°
2026-05-08 21:42 50.76216 -1.40778 3202 ft 154 kts 286°
2026-05-08 21:43 50.76794 -1.42161 3003 ft 153 kts 318°
2026-05-08 21:43 50.77704 -1.42994 2789 ft 151 kts 348°
2026-05-08 21:43 50.78719 -1.43414 2602 ft 151 kts 348°
2026-05-08 21:43 50.79735 -1.43798 2518 ft 151 kts 357°
2026-05-08 21:44 50.80746 -1.43612 2513 ft 145 kts 24°
2026-05-08 21:44 50.81701 -1.43079 2516 ft 146 kts 23°
2026-05-08 21:44 50.82657 -1.42549 2510 ft 146 kts 24°
2026-05-08 21:44 50.83624 -1.42012 2297 ft 147 kts 24°
2026-05-08 21:45 50.84580 -1.41483 2086 ft 144 kts 24°
2026-05-08 21:45 50.85523 -1.40959 1882 ft 143 kts 24°
2026-05-08 21:45 50.86460 -1.40437 1695 ft 142 kts 24°
2026-05-08 21:45 50.87389 -1.39922 1477 ft 141 kts 23°
2026-05-08 21:46 50.88302 -1.39419 1305 ft 140 kts 23°
2026-05-08 21:46 50.89222 -1.38907 1121 ft 140 kts 22°
2026-05-08 21:46 50.90132 -1.38380 947 ft 139 kts 22°
2026-05-08 21:46 50.91036 -1.37838 773 ft 138 kts 21°
2026-05-08 21:47 50.91953 -1.37387 598 ft 138 kts 17°
2026-05-08 21:47 50.92863 -1.36896 397 ft 137 kts 21°
2026-05-08 21:47 50.93759 -1.36380 211 ft 137 kts 20°
2026-05-08 21:47 50.94655 -1.35876 46 ft 132 kts 20°
2026-05-08 21:48 50.95359 -1.35496 41 ft 67 kts 19°
2026-05-08 21:48 50.95543 -1.35391 44 ft 11 kts 20°
2026-05-08 21:48 50.95684 -1.35313 44 ft 24 kts 19°
2026-05-08 21:48 50.95810 -1.35252 40 ft 15 kts 11°
2026-05-08 21:49 50.95878 -1.35240 42 ft 7 kts 50°
2026-05-08 21:49 50.95862 -1.35226 39 ft 8 kts 182°
2026-05-08 21:49 50.95774 -1.35264 42 ft 14 kts 199°
2026-05-08 21:49 50.95688 -1.35312 44 ft 12 kts 199°
2026-05-08 21:50 50.95615 -1.35352 45 ft 10 kts 199°
2026-05-08 21:50 50.95529 -1.35400 42 ft 19 kts 199°
2026-05-08 21:50 50.95372 -1.35487 40 ft 26 kts 199°
2026-05-08 21:50 50.95198 -1.35583 40 ft 24 kts 198°
2026-05-08 21:51 50.95057 -1.35664 38 ft 7 kts 201°
2026-05-08 21:51 50.95025 -1.35708 39 ft 5 kts 251°
2026-05-08 21:51 50.95031 -1.35776 38 ft 10 kts 288°
2026-05-08 21:51 50.95053 -1.35877 39 ft 9 kts 281°
2026-05-08 21:52 50.95019 -1.35941 39 ft 8 kts 202°
2026-05-08 21:52 50.94970 -1.35968 37 ft 7 kts 199°
2026-05-08 21:52 50.94925 -1.35993 39 ft 7 kts 199°
2026-05-08 21:52 50.94896 -1.36039 39 ft 6 kts 253°
2026-05-08 21:53 50.94904 -1.36095 38 ft 5 kts 289°
2026-05-08 21:53 50.94921 -1.36133 39 ft 4 kts 334°
2026-05-08 21:53 50.94945 -1.36131 39 ft 3 kts 13°
2026-05-08 21:53 50.94953 -1.36127 39 ft 2 kts 17°
2026-05-08 21:54 50.94967 -1.36120 37 ft 2 kts 17°
2026-05-08 21:54 50.94972 -1.36117 38 ft 0 kts 20°